This demonstration page uses our WeatherBlox Daily Observations layout. Learn more.

Left ArrowRight Arrow

Hourly Observations for June 13, 2021

Temp ( °F °C ) Dew Point ( °F °C ) Humidity (%) Winds ( mph kmh ) Pressure ( in mb ) Visibility ( mi km ) Precip ( " mm )
1:23 am 01:23 undefined N/A N/A N/A N N/A N/A N/A N/A
1:35 am 01:35 undefined 70 21 70 21 100 100 N N/A 29.86 1011 10 16 N/A
1:55 am 01:55 Clear 70 21 70 21 100 100 N N/A 29.86 1011 10 16 N/A
2:15 am 02:15 Clear 70 21 70 21 100 100 N N/A 29.85 1011 10 16 N/A
2:35 am 02:35 Clear 70 21 70 21 100 100 N N/A 29.85 1011 10 16 N/A
2:55 am 02:55 Clear 70 21 70 21 100 100 N N/A 29.84 1010 10 16 N/A
3:15 am 03:15 Clear 70 21 70 21 100 100 N N/A 29.85 1011 10 16 N/A
3:35 am 03:35 Clear 70 21 70 21 100 100 N N/A 29.85 1011 10 16 N/A
3:55 am 03:55 Clear 68 20 68 20 100 100 N N/A 29.86 1011 10 16 N/A
4:15 am 04:15 Clear 68 20 68 20 100 100 N N/A 29.86 1011 10 16 N/A
4:35 am 04:35 Clear 68 20 68 20 100 100 N N/A 29.87 1011 10 16 N/A
4:55 am 04:55 Partly Cloudy 68 20 68 20 100 100 N N/A 29.87 1011 10 16 N/A
5:15 am 05:15 Partly Cloudy 68 20 68 20 100 100 N N/A 29.87 1011 10 16 N/A
5:35 am 05:35 Partly Cloudy 68 20 68 20 100 100 N N/A 29.87 1011 10 16 N/A
5:55 am 05:55 Cloudy 70 21 70 21 100 100 N N/A 29.87 1011 10 16 N/A
6:15 am 06:15 Mostly Cloudy 70 21 70 21 100 100 N N/A 29.87 1011 10 16 N/A
6:35 am 06:35 Partly Cloudy 70 21 70 21 100 100 N N/A 29.88 1012 10 16 N/A
6:55 am 06:55 Sunny 70 21 70 21 100 100 N N/A 29.89 1012 10 16 N/A
7:15 am 07:15 Sunny 72 22 72 22 100 100 N N/A 29.88 1012 10 16 N/A
7:35 am 07:35 Sunny 72 22 72 22 100 100 NNW 5 7 29.88 1012 10 16 N/A
7:55 am 07:55 Sunny 73 23 73 23 100 100 N 5 7 29.88 1012 10 16 N/A
8:15 am 08:15 Sunny 73 23 73 23 100 100 NNE 3 6 29.89 1012 10 16 N/A
8:35 am 08:35 Sunny 75 24 75 24 100 100 N N/A 29.90 1012 10 16 N/A
8:55 am 08:55 Sunny 75 24 75 24 100 100 N N/A 29.91 1013 10 16 N/A
9:15 am 09:15 Sunny 75 24 73 23 94 94 NNE 9 15 29.91 1013 10 16 N/A
9:35 am 09:35 Sunny 77 25 75 24 94 94 N 10 17 29.90 1013 10 16 N/A
9:55 am 09:55 Sunny 77 25 73 23 89 89 NNE 10 17 29.91 1013 10 16 N/A
10:15 am 10:15 Sunny 79 26 75 24 89 89 N N/A 29.91 1013 10 16 N/A
10:35 am 10:35 Sunny 81 27 73 23 79 79 N 8 13 29.91 1013 10 16 N/A
10:55 am 10:55 Partly Cloudy 81 27 72 22 74 74 N 8 13 29.91 1013 10 16 N/A
11:15 am 11:15 Partly Cloudy 81 27 72 22 74 74 N 10 17 29.92 1013 10 16 N/A
11:35 am 11:35 Sunny 82 28 72 22 70 70 N 10 17 29.91 1013 10 16 N/A
11:55 am 11:55 Sunny 82 28 70 21 66 66 N N/A 29.91 1013 10 16 N/A
12:15 pm 12:15 Sunny 84 29 70 21 62 62 N 10 17 29.91 1013 10 16 N/A
12:35 pm 12:35 Sunny 84 29 70 21 62 62 N 10 17 29.92 1013 10 16 N/A
12:55 pm 12:55 Mostly Cloudy 84 29 70 21 62 62 N N/A 29.92 1013 10 16 N/A
1:15 pm 13:15 Cloudy 84 29 70 21 62 62 NNW 13 20 29.91 1013 10 16 N/A
1:35 pm 13:35 Mostly Cloudy 84 29 70 21 62 62 NNE 7 11 29.91 1013 10 16 N/A
1:55 pm 13:55 Partly Cloudy 86 30 70 21 59 59 NW 13 20 29.91 1013 10 16 N/A
2:15 pm 14:15 Partly Cloudy N/A N/A N/A N N/A N/A 10 16 N/A
2:35 pm 14:35 Partly Cloudy N/A N/A N/A NW 13 20 N/A 10 16 N/A
2:55 pm 14:55 Partly Cloudy N/A N/A N/A N 9 15 N/A 10 16 N/A
3:15 pm 15:15 Partly Cloudy N/A N/A N/A N 5 7 N/A 10 16 N/A
3:35 pm 15:35 Partly Cloudy 86 30 68 20 55 55 N N/A 29.88 1012 10 16 N/A
3:55 pm 15:55 Partly Cloudy 86 30 70 21 59 59 NW 7 11 29.88 1012 10 16 N/A
4:15 pm 16:15 Partly Cloudy 86 30 70 21 59 59 N N/A 29.87 1011 10 16 N/A
4:35 pm 16:35 Partly Cloudy 86 30 70 21 59 59 NNW 6 9 29.87 1011 10 16 N/A
4:55 pm 16:55 Partly Cloudy 86 30 70 21 59 59 N 15 24 29.86 1011 10 16 N/A
5:15 pm 17:15 Sunny 86 30 68 20 55 55 N 12 19 29.85 1011 10 16 N/A
5:35 pm 17:35 Sunny 86 30 68 20 55 55 NNW 15 24 29.85 1011 10 16 N/A
5:55 pm 17:55 Sunny 84 29 68 20 58 58 NNW 15 24 29.85 1011 10 16 N/A
6:15 pm 18:15 Sunny 84 29 66 19 55 55 NNW 16 26 29.85 1011 10 16 N/A
6:35 pm 18:35 Sunny 84 29 66 19 55 55 NNW 13 20 29.85 1011 10 16 N/A
6:55 pm 18:55 Sunny 84 29 64 18 51 51 N 12 19 29.86 1011 10 16 N/A
7:15 pm 19:15 Sunny 82 28 63 17 51 51 N 15 24 29.86 1011 10 16 N/A
7:35 pm 19:35 Sunny 82 28 63 17 51 51 N 12 19 29.87 1012 10 16 N/A
7:55 pm 19:55 Sunny 81 27 63 17 54 54 NNW 16 26 29.88 1012 10 16 N/A
8:15 pm 20:15 Sunny 81 27 61 16 51 51 N 12 19 29.89 1012 10 16 N/A
8:35 pm 20:35 Sunny 79 26 61 16 54 54 NNW 13 20 29.89 1012 10 16 N/A
8:55 pm 20:55 Sunny 75 24 59 15 57 57 NNW 8 13 29.91 1013 10 16 N/A
9:15 pm 21:15 Clear 75 24 57 14 54 54 NNW 8 13 29.91 1013 10 16 N/A
9:35 pm 21:35 Clear 73 23 57 14 57 57 NNW 8 13 29.91 1013 10 16 N/A
9:55 pm 21:55 Clear 72 22 59 15 65 65 N N/A 29.91 1013 10 16 N/A
10:15 pm 22:15 Clear 70 21 61 16 73 73 N N/A 29.93 1013 10 16 N/A
10:35 pm 22:35 Clear 70 21 59 15 69 69 N N/A 29.94 1014 10 16 N/A
10:55 pm 22:55 Clear 68 20 59 15 73 73 N N/A 29.94 1014 10 16 N/A
11:15 pm 23:15 Clear 68 20 59 15 73 73 N N/A 29.95 1014 10 16 N/A
11:35 pm 23:35 Clear 68 20 59 15 73 73 N N/A 29.96 1014 10 16 N/A
11:55 pm 23:55 Clear 66 19 59 15 78 78 N N/A 29.95 1014 10 16 N/A

Powered by AerisWeather